sat.trackr.live / text

‹ back to catalog

STARLINK-31303

NORAD 59239 · 2024-049J

PAYLOAD ACTIVE UNKNOWN

§ Identity

Operator
Country
US
Launch date
2024-03-16
Launch site
AFETR
Launch vehicle
Mass (kg)
RCS (m²)

Purposes: comms

External: N2YO · Heavens-Above · Gunter

§ Orbital elements

Epoch: 2026-09-18T23:46:45.673824Z

Period
94.27 min
Inclination
43.0024°
Eccentricity
0.0000984
Mean motion
15.27580338 rev/d
Perigee alt
482.4 km
Apogee alt
483.7 km
Semi-major
6,861.2 km
B*
2.7039e-5
RAAN
121.0274°
Arg perigee
281.1009°
Mean anomaly
78.9732°
Rev number
14,209

§ Raw data

STARLINK-313031 59239U 24049J   26261.99080641  .00000482  00000+0  27039-4 0  99992 59239  43.0024 121.0274 0000984 281.1009  78.9732 15.27580338142096

JSON: /api/v1/satellites/59239 · /tle

For live sub-satellite position, see the globe view (requires WebGL).

§ Visibility from observer

Set your observer location to see the next 7 days of passes ≥ 10°. The values pass through the URL so the page stays shareable.

No JS? Fill the form by hand. The geolocation button needs JavaScript.